Гроздьово, ТХ сензор, 04.03.2023 Measurements

Back to Overview

Timestamp Temperature Humidity
5/4/2026 5:45:29 PM 18,7 C 46.0%
5/4/2026 5:38:33 PM 18,6 C 46.0%
5/4/2026 5:31:23 PM 18,6 C 46.0%
5/4/2026 5:24:21 PM 18,4 C 46.0%
5/4/2026 5:17:18 PM 18,1 C 46.0%
5/4/2026 5:10:15 PM 18,0 C 46.0%
5/4/2026 5:03:11 PM 18,0 C 46.0%
5/4/2026 4:56:09 PM 18,0 C 46.0%
5/4/2026 4:49:06 PM 18,0 C 45.0%
5/4/2026 4:42:02 PM 18,1 C 45.0%
5/4/2026 4:35:00 PM 18,1 C 44.0%
5/4/2026 4:27:57 PM 18,2 C 44.0%
5/4/2026 4:20:55 PM 18,1 C 44.0%
5/4/2026 4:13:54 PM 18,3 C 43.0%
5/4/2026 4:06:51 PM 18,3 C 44.0%
5/4/2026 3:59:48 PM 18,5 C 43.0%
5/4/2026 3:52:45 PM 18,5 C 43.0%
5/4/2026 3:45:43 PM 18,7 C 43.0%
5/4/2026 3:38:42 PM 19,1 C 41.0%
5/4/2026 3:31:40 PM 19,2 C 45.0%
5/4/2026 3:24:34 PM 19,3 C 43.0%
5/4/2026 3:17:35 PM 19,1 C 43.0%
5/4/2026 3:10:33 PM 18,9 C 44.0%
5/4/2026 3:03:32 PM 18,6 C 44.0%
5/4/2026 2:56:29 PM 18,4 C 45.0%
5/4/2026 2:49:27 PM 18,1 C 45.0%
5/4/2026 2:42:25 PM 17,9 C 47.0%
5/4/2026 2:35:22 PM 17,7 C 48.0%
5/4/2026 2:28:20 PM 17,6 C 46.0%
5/4/2026 2:21:24 PM 17,7 C 47.0%
5/4/2026 2:14:15 PM 17,8 C 45.0%
5/4/2026 2:07:13 PM 18,1 C 46.0%
5/4/2026 2:00:17 PM 18,4 C 44.0%
5/4/2026 1:53:06 PM 18,3 C 45.0%
5/4/2026 1:46:04 PM 18,3 C 46.0%
5/4/2026 1:39:02 PM 18,4 C 48.0%
5/4/2026 1:32:06 PM 17,9 C 49.0%
5/4/2026 1:24:58 PM 17,5 C 48.0%
5/4/2026 1:17:55 PM 17,3 C 48.0%
5/4/2026 1:10:54 PM 17,3 C 48.0%
5/4/2026 1:03:58 PM 17,5 C 47.0%
5/4/2026 12:56:49 PM 17,5 C 46.0%
5/4/2026 12:49:46 PM 17,4 C 48.0%
5/4/2026 12:42:44 PM 17,3 C 46.0%
5/4/2026 12:35:42 PM 17,3 C 47.0%
5/4/2026 12:28:40 PM 17,2 C 48.0%
5/4/2026 12:21:38 PM 17,3 C 50.0%
5/4/2026 12:14:36 PM 17,3 C 49.0%
5/4/2026 12:07:33 PM 17,1 C 50.0%
5/4/2026 12:00:30 PM 16,9 C 49.0%
5/4/2026 11:53:28 AM 16,9 C 48.0%
5/4/2026 11:50:03 AM 16,9 C 53.0%
5/4/2026 11:43:01 AM 16,5 C 53.0%
5/4/2026 11:35:58 AM 16,0 C 53.0%
5/4/2026 11:28:55 AM 15,9 C 54.0%
5/4/2026 11:21:52 AM 15,9 C 52.0%
5/4/2026 11:14:49 AM 15,8 C 54.0%
5/4/2026 11:07:45 AM 15,4 C 54.0%
5/4/2026 11:00:42 AM 15,3 C 54.0%
5/4/2026 10:53:39 AM 15,2 C 54.0%
5/4/2026 10:46:38 AM 15,1 C 57.0%
5/4/2026 10:39:37 AM 14,9 C 58.0%
5/4/2026 10:32:36 AM 14,7 C 57.0%
5/4/2026 10:28:16 AM 14,5 C 63.0%
5/4/2026 10:21:13 AM 14,1 C 66.0%
5/4/2026 10:14:10 AM 13,8 C 66.0%
5/4/2026 10:07:08 AM 13,4 C 68.0%
5/4/2026 10:00:07 AM 13,0 C 69.0%
5/4/2026 9:53:11 AM 12,6 C 71.0%
5/4/2026 9:46:03 AM 12,1 C 71.0%
5/4/2026 9:39:01 AM 11,7 C 72.0%
5/4/2026 9:31:58 AM 11,3 C 73.0%
5/4/2026 9:24:55 AM 10,9 C 74.0%
5/4/2026 9:17:54 AM 10,5 C 74.0%
5/4/2026 9:10:53 AM 10,2 C 75.0%
5/4/2026 9:03:51 AM 9,9 C 75.0%
5/4/2026 8:56:48 AM 9,5 C 77.0%
5/4/2026 8:49:47 AM 9,0 C 78.0%
5/4/2026 8:42:43 AM 8,5 C 79.0%
5/4/2026 8:35:40 AM 8,2 C 80.0%
5/4/2026 8:28:37 AM 7,8 C 80.0%
5/4/2026 8:21:34 AM 7,3 C 80.0%
5/4/2026 8:14:30 AM 6,9 C 81.0%
5/4/2026 8:07:27 AM 6,5 C 82.0%
5/4/2026 8:00:25 AM 5,8 C 82.0%
5/4/2026 7:53:23 AM 5,2 C 84.0%
5/4/2026 7:46:21 AM 4,6 C 84.0%
5/4/2026 7:39:18 AM 3,9 C 84.0%
5/4/2026 7:32:14 AM 3,5 C 84.0%
5/4/2026 7:25:11 AM 2,9 C 85.0%
5/4/2026 7:18:10 AM 2,5 C 84.0%
5/4/2026 7:11:09 AM 2,2 C 84.0%
5/4/2026 7:04:07 AM 1,9 C 84.0%
5/4/2026 6:57:06 AM 1,7 C 84.0%
5/4/2026 6:50:04 AM 1,5 C 84.0%
5/4/2026 6:43:02 AM 1,4 C 83.0%
5/4/2026 6:36:00 AM 1,4 C 82.0%
5/4/2026 6:28:57 AM 1,3 C 83.0%
5/4/2026 6:21:55 AM 1,3 C 82.0%
5/4/2026 6:14:54 AM 1,3 C 82.0%
5/4/2026 6:07:53 AM 1,2 C 83.0%
5/4/2026 6:00:49 AM 1,2 C 82.0%
5/4/2026 5:53:46 AM 1,1 C 82.0%
5/4/2026 5:46:42 AM 1,1 C 82.0%
5/4/2026 5:39:42 AM 1,1 C 82.0%
5/4/2026 5:32:38 AM 1,1 C 82.0%
5/4/2026 5:25:37 AM 1,1 C 82.0%
5/4/2026 5:18:35 AM 1,1 C 82.0%
5/4/2026 5:11:32 AM 1,1 C 82.0%
5/4/2026 5:04:31 AM 1,0 C 81.0%
5/4/2026 4:57:28 AM 1,0 C 82.0%
5/4/2026 4:50:26 AM 1,0 C 82.0%
5/4/2026 4:43:21 AM 0,9 C 82.0%
5/4/2026 4:36:19 AM 0,9 C 82.0%
5/4/2026 4:29:16 AM 0,9 C 81.0%
5/4/2026 4:22:15 AM 0,9 C 81.0%
5/4/2026 4:15:13 AM 1,0 C 81.0%
5/4/2026 4:08:10 AM 1,1 C 81.0%
5/4/2026 4:01:06 AM 1,1 C 81.0%
5/4/2026 3:54:05 AM 1,2 C 81.0%
5/4/2026 3:47:01 AM 1,2 C 81.0%
5/4/2026 3:39:57 AM 1,3 C 81.0%
5/4/2026 3:32:56 AM 1,3 C 80.0%
5/4/2026 3:25:52 AM 1,4 C 81.0%
5/4/2026 3:18:48 AM 1,3 C 80.0%
5/4/2026 3:11:48 AM 1,2 C 80.0%
5/4/2026 3:04:43 AM 1,1 C 79.0%
5/4/2026 2:57:42 AM 1,1 C 79.0%
5/4/2026 2:50:39 AM 1,3 C 79.0%
5/4/2026 2:43:36 AM 1,4 C 78.0%
5/4/2026 2:36:35 AM 1,5 C 79.0%
5/4/2026 2:29:31 AM 1,6 C 80.0%
5/4/2026 2:22:30 AM 1,7 C 79.0%
5/4/2026 2:15:26 AM 1,8 C 79.0%
5/4/2026 2:08:23 AM 1,9 C 79.0%
5/4/2026 2:01:20 AM 2,0 C 79.0%
5/4/2026 1:54:17 AM 2,1 C 79.0%
5/4/2026 1:47:14 AM 2,2 C 78.0%
5/4/2026 1:40:10 AM 2,3 C 78.0%
5/4/2026 1:33:07 AM 2,4 C 78.0%
5/4/2026 1:26:04 AM 2,5 C 79.0%
5/4/2026 1:19:03 AM 2,6 C 79.0%
5/4/2026 1:12:00 AM 2,7 C 79.0%
5/4/2026 1:04:57 AM 2,8 C 78.0%
5/4/2026 12:57:56 AM 2,9 C 78.0%
5/4/2026 12:50:54 AM 2,9 C 76.0%
5/4/2026 12:43:52 AM 2,9 C 78.0%
5/4/2026 12:36:48 AM 2,8 C 80.0%
5/4/2026 12:29:47 AM 2,9 C 78.0%
5/4/2026 12:22:46 AM 2,9 C 77.0%
5/4/2026 12:15:44 AM 3,0 C 77.0%
5/4/2026 12:08:41 AM 3,0 C 77.0%
5/4/2026 12:01:38 AM 3,1 C 77.0%